Time,TemperatureF,DewpointF,PressureIn,WindDirection,WindDirectionDegrees,WindSpeedMPH,WindSpeedGustMPH,Humidity,HourlyPrecipIn,Conditions,Clouds,dailyrainin,SoftwareType,DateUTC
2013-05-15 00:01:00,58.0,47.9,29.69,NE,37,2.0,2.0,69,0.00,,,0.00,Wunderground v.1.12,2013-05-15 04:01:00,
2013-05-15 00:02:00,58.0,47.9,29.69,NE,37,3.0,3.0,69,0.00,,,0.00,Wunderground v.1.12,2013-05-15 04:02:00,
2013-05-15 00:04:00,57.8,48.1,29.69,NE,37,1.0,3.0,70,0.00,,,0.00,Wunderground v.1.12,2013-05-15 04:04:00,
2013-05-15 00:09:00,57.6,48.3,29.69,NE,37,3.0,4.0,71,0.00,,,0.00,Wunderground v.1.12,2013-05-15 04:09:00,
2013-05-15 00:10:00,57.6,48.3,29.69,NE,37,0.0,2.0,71,0.00,,,0.00,Wunderground v.1.12,2013-05-15 04:10:00,
2013-05-15 00:11:00,57.6,48.3,29.69,NE,37,0.0,2.0,71,0.00,,,0.00,Wunderground v.1.12,2013-05-15 04:11:00,
2013-05-15 00:17:00,57.5,48.2,29.69,NE,37,0.0,2.0,71,0.00,,,0.00,Wunderground v.1.12,2013-05-15 04:17:00,
2013-05-15 00:22:00,57.2,47.9,29.69,NE,37,2.0,2.0,71,0.00,,,0.00,Wunderground v.1.12,2013-05-15 04:22:00,
2013-05-15 00:29:00,57.0,48.1,29.69,NE,37,0.0,1.0,72,0.00,,,0.00,Wunderground v.1.12,2013-05-15 04:29:00,
2013-05-15 00:35:00,56.9,48.0,29.69,NE,37,0.0,0.0,72,0.00,,,0.00,Wunderground v.1.12,2013-05-15 04:35:00,
2013-05-15 00:41:00,56.9,48.3,29.69,NE,46,0.0,2.0,73,0.00,,,0.00,Wunderground v.1.12,2013-05-15 04:41:00,
2013-05-15 00:46:00,56.7,48.5,29.68,NE,47,0.0,1.0,74,0.00,,,0.00,Wunderground v.1.12,2013-05-15 04:46:00,
2013-05-15 00:52:00,56.6,48.4,29.68,NE,48,0.0,1.0,74,0.00,,,0.00,Wunderground v.1.12,2013-05-15 04:52:00,
2013-05-15 00:57:00,56.5,48.3,29.68,NE,48,1.0,3.0,74,0.00,,,0.00,Wunderground v.1.12,2013-05-15 04:57:00,
2013-05-15 01:04:00,56.5,48.7,29.68,NE,48,2.0,3.0,75,0.00,,,0.00,Wunderground v.1.12,2013-05-15 05:04:00,
2013-05-15 01:10:00,56.5,48.7,29.68,NE,47,0.0,2.0,75,0.00,,,0.00,Wunderground v.1.12,2013-05-15 05:10:00,
2013-05-15 01:16:00,56.5,48.7,29.68,NE,47,0.0,1.0,75,0.00,,,0.00,Wunderground v.1.12,2013-05-15 05:16:00,
2013-05-15 01:22:00,56.3,48.5,29.68,NE,47,0.0,0.0,75,0.00,,,0.00,Wunderground v.1.12,2013-05-15 05:22:00,
2013-05-15 01:27:00,56.2,48.4,29.67,NE,48,0.0,0.0,75,0.00,,,0.00,Wunderground v.1.12,2013-05-15 05:27:00,
2013-05-15 01:34:00,55.9,48.1,29.67,NE,48,0.0,0.0,75,0.00,,,0.00,Wunderground v.1.12,2013-05-15 05:34:00,
2013-05-15 01:39:00,55.7,48.2,29.67,NE,48,0.0,0.0,76,0.00,,,0.00,Wunderground v.1.12,2013-05-15 05:39:00,
2013-05-15 01:45:00,55.4,48.3,29.66,NE,48,0.0,0.0,77,0.00,,,0.00,Wunderground v.1.12,2013-05-15 05:45:00,
2013-05-15 01:50:00,55.3,48.6,29.66,NE,48,0.0,0.0,78,0.00,,,0.00,Wunderground v.1.12,2013-05-15 05:50:00,
2013-05-15 01:56:00,55.3,48.6,29.66,NE,48,0.0,0.0,78,0.00,,,0.00,Wunderground v.1.12,2013-05-15 05:56:00,
2013-05-15 02:01:00,55.1,48.4,29.66,NE,48,0.0,3.0,78,0.00,,,0.00,Wunderground v.1.12,2013-05-15 06:01:00,
2013-05-15 02:06:00,55.1,48.7,29.66,NE,50,0.0,3.0,79,0.00,,,0.00,Wunderground v.1.12,2013-05-15 06:06:00,
2013-05-15 02:11:00,55.1,48.7,29.66,NE,50,0.0,1.0,79,0.00,,,0.00,Wunderground v.1.12,2013-05-15 06:11:00,
2013-05-15 02:16:00,55.1,48.7,29.66,NE,50,0.0,0.0,79,0.00,,,0.00,Wunderground v.1.12,2013-05-15 06:16:00,
2013-05-15 02:21:00,55.1,49.0,29.66,NE,50,1.0,1.0,80,0.00,,,0.00,Wunderground v.1.12,2013-05-15 06:21:00,
2013-05-15 02:26:00,55.3,49.2,29.66,NE,50,0.0,1.0,80,0.00,,,0.00,Wunderground v.1.12,2013-05-15 06:26:00,
2013-05-15 02:31:00,55.3,49.2,29.64,NE,50,1.0,1.0,80,0.00,,,0.00,Wunderground v.1.12,2013-05-15 06:31:00,
2013-05-15 02:36:00,55.3,49.2,29.64,NE,50,0.0,1.0,80,0.00,,,0.00,Wunderground v.1.12,2013-05-15 06:36:00,
2013-05-15 02:41:00,55.4,49.7,29.64,NE,50,0.0,0.0,81,0.00,,,0.00,Wunderground v.1.12,2013-05-15 06:41:00,
2013-05-15 02:46:00,55.6,49.9,29.62,ENE,73,2.0,4.0,81,0.00,,,0.00,Wunderground v.1.12,2013-05-15 06:46:00,
2013-05-15 02:51:00,55.6,49.9,29.62,East,93,0.0,2.0,81,0.00,,,0.00,Wunderground v.1.12,2013-05-15 06:51:00,
2013-05-15 02:56:00,55.6,49.9,29.62,SE,134,0.0,2.0,81,0.00,,,0.00,Wunderground v.1.12,2013-05-15 06:56:00,
2013-05-15 03:01:00,55.7,50.0,29.59,SE,133,1.0,3.0,81,0.00,,,0.00,Wunderground v.1.12,2013-05-15 07:01:00,
2013-05-15 03:06:00,55.7,50.0,29.59,SE,133,0.0,1.0,81,0.00,,,0.00,Wunderground v.1.12,2013-05-15 07:06:00,
2013-05-15 03:11:00,55.7,50.0,29.59,SE,133,0.0,1.0,81,0.00,,,0.00,Wunderground v.1.12,2013-05-15 07:11:00,
2013-05-15 03:16:00,55.9,50.2,29.59,SE,135,0.0,1.0,81,0.00,,,0.00,Wunderground v.1.12,2013-05-15 07:16:00,
2013-05-15 03:21:00,55.7,50.0,29.59,SE,135,0.0,0.0,81,0.00,,,0.00,Wunderground v.1.12,2013-05-15 07:21:00,
2013-05-15 03:26:00,55.7,50.3,29.59,SE,135,0.0,0.0,82,0.00,,,0.00,Wunderground v.1.12,2013-05-15 07:26:00,
2013-05-15 03:31:00,55.7,50.3,29.59,SE,135,2.0,2.0,82,0.00,,,0.00,Wunderground v.1.12,2013-05-15 07:31:00,
2013-05-15 03:36:00,55.7,50.3,29.59,SE,135,3.0,3.0,82,0.00,,,0.00,Wunderground v.1.12,2013-05-15 07:36:00,
2013-05-15 03:41:00,55.7,50.6,29.59,SE,135,0.0,1.0,83,0.00,,,0.00,Wunderground v.1.12,2013-05-15 07:41:00,
2013-05-15 03:46:00,55.7,50.6,29.59,SE,134,0.0,2.0,83,0.00,,,0.00,Wunderground v.1.12,2013-05-15 07:46:00,
2013-05-15 03:51:00,55.7,50.6,29.59,SE,134,0.0,1.0,83,0.00,,,0.00,Wunderground v.1.12,2013-05-15 07:51:00,
2013-05-15 03:56:00,55.6,50.5,29.59,SE,134,0.0,0.0,83,0.00,,,0.00,Wunderground v.1.12,2013-05-15 07:56:00,
2013-05-15 04:01:00,55.6,50.8,29.58,SE,134,0.0,1.0,84,0.00,,,0.00,Wunderground v.1.12,2013-05-15 08:01:00,
2013-05-15 04:06:00,55.6,50.8,29.58,SE,134,1.0,2.0,84,0.00,,,0.00,Wunderground v.1.12,2013-05-15 08:06:00,
2013-05-15 04:11:00,55.6,50.8,29.58,SE,134,0.0,1.0,84,0.00,,,0.00,Wunderground v.1.12,2013-05-15 08:11:00,
2013-05-15 04:16:00,55.6,50.8,29.58,SE,134,0.0,1.0,84,0.00,,,0.00,Wunderground v.1.12,2013-05-15 08:16:00,
2013-05-15 04:21:00,55.6,50.8,29.58,SE,134,0.0,0.0,84,0.00,,,0.00,Wunderground v.1.12,2013-05-15 08:21:00,
2013-05-15 04:26:00,55.4,51.0,29.58,SE,134,0.0,0.0,85,0.00,,,0.00,Wunderground v.1.12,2013-05-15 08:26:00,
2013-05-15 04:31:00,55.3,50.9,29.57,SE,134,0.0,0.0,85,0.00,,,0.00,Wunderground v.1.12,2013-05-15 08:31:00,
2013-05-15 04:36:00,55.1,50.7,29.57,SE,134,0.0,0.0,85,0.00,,,0.00,Wunderground v.1.12,2013-05-15 08:36:00,
2013-05-15 04:41:00,55.0,50.6,29.56,SE,134,0.0,0.0,85,0.00,,,0.00,Wunderground v.1.12,2013-05-15 08:41:00,
2013-05-15 04:46:00,54.8,50.4,29.56,SE,134,0.0,0.0,85,0.00,,,0.00,Wunderground v.1.12,2013-05-15 08:46:00,
2013-05-15 04:52:00,54.5,50.1,29.56,SE,134,0.0,0.0,85,0.00,,,0.00,Wunderground v.1.12,2013-05-15 08:52:00,
2013-05-15 04:57:00,54.4,50.0,29.56,SE,134,0.0,0.0,85,0.00,,,0.00,Wunderground v.1.12,2013-05-15 08:57:00,
2013-05-15 05:02:00,54.2,49.8,29.56,SE,134,0.0,0.0,85,0.00,,,0.00,Wunderground v.1.12,2013-05-15 09:02:00,
2013-05-15 05:07:00,54.1,50.0,29.56,SE,134,0.0,0.0,86,0.00,,,0.00,Wunderground v.1.12,2013-05-15 09:07:00,
2013-05-15 05:12:00,53.8,49.7,29.55,SE,134,0.0,0.0,86,0.00,,,0.00,Wunderground v.1.12,2013-05-15 09:12:00,
2013-05-15 05:17:00,53.6,49.5,29.55,SE,134,0.0,0.0,86,0.00,,,0.00,Wunderground v.1.12,2013-05-15 09:17:00,
2013-05-15 05:22:00,53.5,49.7,29.55,SE,134,0.0,0.0,87,0.00,,,0.00,Wunderground v.1.12,2013-05-15 09:22:00,
2013-05-15 05:27:00,53.5,49.7,29.55,SE,134,0.0,0.0,87,0.00,,,0.00,Wunderground v.1.12,2013-05-15 09:27:00,
2013-05-15 05:32:00,53.3,49.8,29.55,SE,134,0.0,0.0,88,0.00,,,0.00,Wunderground v.1.12,2013-05-15 09:32:00,
2013-05-15 05:37:00,53.2,49.7,29.55,SE,134,0.0,0.0,88,0.00,,,0.00,Wunderground v.1.12,2013-05-15 09:37:00,
2013-05-15 05:42:00,53.1,49.6,29.54,SE,134,0.0,0.0,88,0.00,,,0.00,Wunderground v.1.12,2013-05-15 09:42:00,
2013-05-15 05:47:00,52.9,49.4,29.54,SE,134,0.0,0.0,88,0.00,,,0.00,Wunderground v.1.12,2013-05-15 09:47:00,
2013-05-15 05:52:00,52.9,49.4,29.54,SE,134,0.0,1.0,88,0.00,,,0.00,Wunderground v.1.12,2013-05-15 09:52:00,
2013-05-15 05:57:00,52.8,49.6,29.54,SE,134,0.0,0.0,89,0.00,,,0.00,Wunderground v.1.12,2013-05-15 09:57:00,
2013-05-15 06:02:00,52.8,49.6,29.54,SE,134,0.0,0.0,89,0.00,,,0.00,Wunderground v.1.12,2013-05-15 10:02:00,
2013-05-15 06:07:00,52.8,49.6,29.54,SE,134,0.0,1.0,89,0.00,,,0.00,Wunderground v.1.12,2013-05-15 10:07:00,
2013-05-15 06:12:00,52.6,49.4,29.53,SE,134,0.0,0.0,89,0.00,,,0.00,Wunderground v.1.12,2013-05-15 10:12:00,
2013-05-15 06:17:00,52.5,49.4,29.53,SE,134,0.0,0.0,89,0.00,,,0.00,Wunderground v.1.12,2013-05-15 10:17:00,
2013-05-15 06:22:00,52.5,49.7,29.53,SE,134,0.0,0.0,90,0.00,,,0.00,Wunderground v.1.12,2013-05-15 10:22:00,
2013-05-15 06:27:00,52.6,49.8,29.54,SE,134,0.0,1.0,90,0.00,,,0.00,Wunderground v.1.12,2013-05-15 10:27:00,
2013-05-15 06:32:00,52.9,50.3,29.54,SE,134,0.0,0.0,91,0.00,,,0.00,Wunderground v.1.12,2013-05-15 10:32:00,
2013-05-15 06:37:00,53.3,50.7,29.54,SE,134,0.0,0.0,91,0.00,,,0.00,Wunderground v.1.12,2013-05-15 10:37:00,
2013-05-15 06:42:00,53.5,50.9,29.54,SE,134,0.0,0.0,91,0.00,,,0.00,Wunderground v.1.12,2013-05-15 10:42:00,
2013-05-15 06:47:00,53.5,50.9,29.54,SE,134,0.0,0.0,91,0.00,,,0.00,Wunderground v.1.12,2013-05-15 10:47:00,
2013-05-15 06:52:00,53.9,51.6,29.54,SSE,147,0.0,1.0,92,0.00,,,0.00,Wunderground v.1.12,2013-05-15 10:52:00,
2013-05-15 06:57:00,54.7,52.4,29.54,SSE,147,0.0,1.0,92,0.00,,,0.00,Wunderground v.1.12,2013-05-15 10:57:00,
2013-05-15 07:02:00,55.6,53.6,29.54,SSE,147,1.0,2.0,93,0.00,,,0.00,Wunderground v.1.12,2013-05-15 11:02:00,
2013-05-15 07:07:00,56.9,55.2,29.54,SSE,148,0.0,2.0,94,0.00,,,0.00,Wunderground v.1.12,2013-05-15 11:07:00,
2013-05-15 07:12:00,58.0,56.3,29.54,SSE,160,1.0,1.0,94,0.00,,,0.00,Wunderground v.1.12,2013-05-15 11:12:00,
2013-05-15 07:17:00,59.0,57.3,29.54,SSE,164,0.0,3.0,94,0.00,,,0.00,Wunderground v.1.12,2013-05-15 11:17:00,
2013-05-15 07:23:00,60.1,58.1,29.54,SW,216,1.0,4.0,93,0.00,,,0.00,Wunderground v.1.12,2013-05-15 11:23:00,
2013-05-15 07:28:00,61.2,58.9,29.54,SW,224,0.0,2.0,92,0.00,,,0.00,Wunderground v.1.12,2013-05-15 11:28:00,
2013-05-15 07:33:00,62.4,59.7,29.54,WSW,239,2.0,4.0,91,0.00,,,0.00,Wunderground v.1.12,2013-05-15 11:33:00,
2013-05-15 07:38:00,63.5,59.9,29.54,WSW,257,1.0,6.0,88,0.00,,,0.00,Wunderground v.1.12,2013-05-15 11:38:00,
2013-05-15 07:43:00,64.8,59.9,29.55,WSW,252,4.0,8.0,84,0.00,,,0.00,Wunderground v.1.12,2013-05-15 11:43:00,
2013-05-15 07:48:00,66.1,59.7,29.55,WSW,246,11.0,11.0,80,0.00,,,0.00,Wunderground v.1.12,2013-05-15 11:48:00,
2013-05-15 07:53:00,67.6,59.0,29.55,West,259,2.0,9.0,74,0.00,,,0.00,Wunderground v.1.12,2013-05-15 11:53:00,
2013-05-15 07:58:00,68.6,58.8,29.55,WSW,240,6.0,7.0,71,0.00,,,0.00,Wunderground v.1.12,2013-05-15 11:58:00,
2013-05-15 08:04:00,69.8,58.8,29.55,West,264,7.0,8.0,68,0.00,,,0.00,Wunderground v.1.12,2013-05-15 12:04:00,
2013-05-15 08:09:00,70.4,58.5,29.55,WSW,247,5.0,11.0,66,0.00,,,0.00,Wunderground v.1.12,2013-05-15 12:09:00,
2013-05-15 08:15:00,71.5,58.2,29.55,WSW,249,6.0,7.0,63,0.00,,,0.00,Wunderground v.1.12,2013-05-15 12:15:00,
2013-05-15 08:21:00,72.5,57.8,29.55,West,263,9.0,10.0,60,0.00,,,0.00,Wunderground v.1.12,2013-05-15 12:21:00,
2013-05-15 08:26:00,73.3,57.1,29.56,WNW,303,3.0,13.0,57,0.00,,,0.00,Wunderground v.1.12,2013-05-15 12:26:00,
2013-05-15 08:32:00,74.2,57.0,29.56,WSW,246,9.0,13.0,55,0.00,,,0.00,Wunderground v.1.12,2013-05-15 12:32:00,
2013-05-15 08:37:00,74.4,56.7,29.56,West,271,9.0,11.0,54,0.00,,,0.00,Wunderground v.1.12,2013-05-15 12:37:00,
2013-05-15 08:42:00,74.6,56.3,29.56,WSW,258,7.0,13.0,53,0.00,,,0.00,Wunderground v.1.12,2013-05-15 12:42:00,
2013-05-15 08:47:00,74.9,56.6,29.56,West,277,5.0,14.0,53,0.00,,,0.00,Wunderground v.1.12,2013-05-15 12:47:00,
2013-05-15 08:52:00,75.4,56.0,29.56,WNW,297,7.0,11.0,51,0.00,,,0.00,Wunderground v.1.12,2013-05-15 12:52:00,
2013-05-15 08:57:00,75.8,55.3,29.56,West,264,9.0,17.0,49,0.00,,,0.00,Wunderground v.1.12,2013-05-15 12:57:00,
2013-05-15 09:04:00,76.5,55.3,29.56,WNW,300,6.0,12.0,48,0.00,,,0.00,Wunderground v.1.12,2013-05-15 13:04:00,
2013-05-15 09:10:00,76.8,55.0,29.56,West,280,15.0,15.0,47,0.00,,,0.00,Wunderground v.1.12,2013-05-15 13:10:00,
2013-05-15 09:15:00,77.0,54.0,29.57,WSW,258,9.0,15.0,45,0.00,,,0.00,Wunderground v.1.12,2013-05-15 13:15:00,
2013-05-15 09:20:00,77.2,54.2,29.57,WNW,298,9.0,16.0,45,0.00,,,0.00,Wunderground v.1.12,2013-05-15 13:20:00,
2013-05-15 09:26:00,77.6,54.6,29.57,WNW,289,4.0,9.0,45,0.00,,,0.00,Wunderground v.1.12,2013-05-15 13:26:00,
2013-05-15 09:31:00,77.6,51.4,29.57,WNW,283,11.0,11.0,40,0.00,,,0.00,Wunderground v.1.12,2013-05-15 13:31:00,
2013-05-15 09:36:00,77.7,52.8,29.57,NW,314,9.0,15.0,42,0.00,,,0.00,Wunderground v.1.12,2013-05-15 13:36:00,
2013-05-15 09:41:00,77.7,50.8,29.57,WSW,258,8.0,12.0,39,0.00,,,0.00,Wunderground v.1.12,2013-05-15 13:41:00,
2013-05-15 09:46:00,77.9,51.6,29.58,NNW,329,13.0,21.0,40,0.00,,,0.00,Wunderground v.1.12,2013-05-15 13:46:00,
2013-05-15 09:51:00,77.9,53.0,29.58,WNW,289,8.0,11.0,42,0.00,,,0.00,Wunderground v.1.12,2013-05-15 13:51:00,
2013-05-15 09:56:00,77.9,52.3,29.58,WSW,258,6.0,10.0,41,0.00,,,0.00,Wunderground v.1.12,2013-05-15 13:56:00,
2013-05-15 10:01:00,77.9,53.0,29.59,WNW,300,7.0,12.0,42,0.00,,,0.00,Wunderground v.1.12,2013-05-15 14:01:00,
2013-05-15 10:07:00,77.9,52.3,29.59,WNW,300,3.0,10.0,41,0.00,,,0.00,Wunderground v.1.12,2013-05-15 14:07:00,
2013-05-15 10:12:00,77.7,51.5,29.59,WNW,287,13.0,13.0,40,0.00,,,0.00,Wunderground v.1.12,2013-05-15 14:12:00,
2013-05-15 10:17:00,77.4,49.8,29.59,WNW,287,4.0,14.0,38,0.00,,,0.00,Wunderground v.1.12,2013-05-15 14:17:00,
2013-05-15 10:22:00,77.4,50.5,29.59,West,277,9.0,14.0,39,0.00,,,0.00,Wunderground v.1.12,2013-05-15 14:22:00,
2013-05-15 10:27:00,77.7,52.1,29.59,WNW,289,7.0,14.0,41,0.00,,,0.00,Wunderground v.1.12,2013-05-15 14:27:00,
2013-05-15 10:32:00,78.3,50.6,29.59,WNW,299,7.0,10.0,38,0.00,,,0.00,Wunderground v.1.12,2013-05-15 14:32:00,
2013-05-15 10:38:00,78.5,48.6,29.59,WNW,301,8.0,15.0,35,0.00,,,0.00,Wunderground v.1.12,2013-05-15 14:38:00,
2013-05-15 10:44:00,78.5,48.6,29.60,NW,318,10.0,15.0,35,0.00,,,0.00,Wunderground v.1.12,2013-05-15 14:44:00,
2013-05-15 10:49:00,78.1,49.0,29.60,NW,326,10.0,14.0,36,0.00,,,0.00,Wunderground v.1.12,2013-05-15 14:49:00,
2013-05-15 10:54:00,78.3,46.8,29.60,NW,322,6.0,18.0,33,0.00,,,0.00,Wunderground v.1.12,2013-05-15 14:54:00,
2013-05-15 11:00:00,78.6,47.1,29.60,NNW,327,12.0,12.0,33,0.00,,,0.00,Wunderground v.1.12,2013-05-15 15:00:00,
2013-05-15 11:05:00,78.8,48.8,29.60,WNW,295,6.0,9.0,35,0.00,,,0.00,Wunderground v.1.12,2013-05-15 15:05:00,
2013-05-15 11:10:00,79.0,47.4,29.60,West,276,10.0,13.0,33,0.00,,,0.00,Wunderground v.1.12,2013-05-15 15:10:00,
2013-05-15 11:15:00,79.4,49.4,29.60,West,281,8.0,15.0,35,0.00,,,0.00,Wunderground v.1.12,2013-05-15 15:15:00,
2013-05-15 11:20:00,79.8,48.1,29.60,WNW,292,4.0,15.0,33,0.00,,,0.00,Wunderground v.1.12,2013-05-15 15:20:00,
2013-05-15 11:25:00,79.8,48.9,29.60,NW,308,12.0,14.0,34,0.00,,,0.00,Wunderground v.1.12,2013-05-15 15:25:00,
2013-05-15 11:31:00,79.8,46.5,29.61,West,260,13.0,17.0,31,0.00,,,0.00,Wunderground v.1.12,2013-05-15 15:31:00,
2013-05-15 11:36:00,79.6,49.5,29.61,West,274,7.0,14.0,35,0.00,,,0.00,Wunderground v.1.12,2013-05-15 15:36:00,
2013-05-15 11:41:00,79.8,47.3,29.61,WSW,258,11.0,16.0,32,0.00,,,0.00,Wunderground v.1.12,2013-05-15 15:41:00,
2013-05-15 11:46:00,79.9,49.0,29.62,NW,316,17.0,17.0,34,0.00,,,0.00,Wunderground v.1.12,2013-05-15 15:46:00,
2013-05-15 11:51:00,80.1,49.2,29.62,NW,309,7.0,10.0,34,0.00,,,0.00,Wunderground v.1.12,2013-05-15 15:51:00,
2013-05-15 11:56:00,80.7,48.9,29.62,WNW,287,12.0,17.0,33,0.00,,,0.00,Wunderground v.1.12,2013-05-15 15:56:00,
2013-05-15 12:01:00,80.5,47.1,29.62,WNW,298,6.0,10.0,31,0.00,,,0.00,Wunderground v.1.12,2013-05-15 16:01:00,
2013-05-15 12:06:00,80.5,47.9,29.62,West,261,6.0,11.0,32,0.00,,,0.00,Wunderground v.1.12,2013-05-15 16:06:00,
2013-05-15 12:12:00,80.7,48.1,29.63,WNW,283,6.0,13.0,32,0.00,,,0.00,Wunderground v.1.12,2013-05-15 16:12:00,
2013-05-15 12:17:00,80.9,48.3,29.63,West,260,10.0,15.0,32,0.00,,,0.00,Wunderground v.1.12,2013-05-15 16:17:00,
2013-05-15 12:22:00,81.1,46.7,29.63,NW,325,6.0,17.0,30,0.00,,,0.00,Wunderground v.1.12,2013-05-15 16:22:00,
2013-05-15 12:27:00,81.1,46.7,29.64,NW,313,7.0,13.0,30,0.00,,,0.00,Wunderground v.1.12,2013-05-15 16:27:00,
2013-05-15 12:32:00,81.2,47.7,29.64,West,263,13.0,18.0,31,0.00,,,0.00,Wunderground v.1.12,2013-05-15 16:32:00,
2013-05-15 12:38:00,81.1,44.9,29.64,NW,318,15.0,22.0,28,0.00,,,0.00,Wunderground v.1.12,2013-05-15 16:38:00,
2013-05-15 12:44:00,81.1,47.6,29.65,NW,308,10.0,17.0,31,0.00,,,0.00,Wunderground v.1.12,2013-05-15 16:44:00,
2013-05-15 12:51:00,81.4,45.2,29.65,NW,319,9.0,11.0,28,0.00,,,0.00,Wunderground v.1.12,2013-05-15 16:51:00,
2013-05-15 12:56:00,81.2,45.0,29.65,WNW,286,18.0,18.0,28,0.00,,,0.00,Wunderground v.1.12,2013-05-15 16:56:00,
2013-05-15 13:01:00,81.1,43.9,29.65,West,276,8.0,21.0,27,0.00,,,0.00,Wunderground v.1.12,2013-05-15 17:01:00,
2013-05-15 13:06:00,81.2,45.0,29.65,WNW,286,4.0,20.0,28,0.00,,,0.00,Wunderground v.1.12,2013-05-15 17:06:00,
2013-05-15 13:11:00,81.4,45.2,29.65,West,273,13.0,20.0,28,0.00,,,0.00,Wunderground v.1.12,2013-05-15 17:11:00,
2013-05-15 13:16:00,81.4,46.1,29.66,WNW,290,9.0,21.0,29,0.00,,,0.00,Wunderground v.1.12,2013-05-15 17:16:00,
2013-05-15 13:22:00,81.8,45.5,29.66,WNW,293,9.0,17.0,28,0.00,,,0.00,Wunderground v.1.12,2013-05-15 17:22:00,
2013-05-15 13:27:00,81.8,45.5,29.66,WNW,283,9.0,18.0,28,0.00,,,0.00,Wunderground v.1.12,2013-05-15 17:27:00,
2013-05-15 13:32:00,81.8,45.5,29.66,WNW,293,14.0,20.0,28,0.00,,,0.00,Wunderground v.1.12,2013-05-15 17:32:00,
2013-05-15 13:38:00,81.8,45.5,29.66,NW,320,7.0,16.0,28,0.00,,,0.00,Wunderground v.1.12,2013-05-15 17:38:00,
2013-05-15 13:43:00,81.8,45.5,29.66,WNW,300,7.0,13.0,28,0.00,,,0.00,Wunderground v.1.12,2013-05-15 17:43:00,
2013-05-15 13:49:00,81.6,45.3,29.66,NW,320,5.0,18.0,28,0.00,,,0.00,Wunderground v.1.12,2013-05-15 17:49:00,
2013-05-15 13:54:00,81.8,46.4,29.66,West,259,14.0,22.0,29,0.00,,,0.00,Wunderground v.1.12,2013-05-15 17:54:00,
2013-05-15 14:00:00,81.8,44.5,29.67,WNW,293,17.0,17.0,27,0.00,,,0.00,Wunderground v.1.12,2013-05-15 18:00:00,
2013-05-15 14:05:00,81.8,46.4,29.67,North,349,5.0,11.0,29,0.00,,,0.00,Wunderground v.1.12,2013-05-15 18:05:00,
2013-05-15 14:10:00,82.0,46.6,29.67,SW,232,10.0,11.0,29,0.00,,,0.00,Wunderground v.1.12,2013-05-15 18:10:00,
2013-05-15 14:15:00,81.8,44.5,29.67,West,279,2.0,9.0,27,0.00,,,0.00,Wunderground v.1.12,2013-05-15 18:15:00,
2013-05-15 14:21:00,82.0,46.6,29.67,WSW,258,12.0,14.0,29,0.00,,,0.00,Wunderground v.1.12,2013-05-15 18:21:00,
2013-05-15 14:26:00,82.2,46.8,29.67,NNW,346,8.0,14.0,29,0.00,,,0.00,Wunderground v.1.12,2013-05-15 18:26:00,
2013-05-15 14:31:00,82.0,46.6,29.66,WNW,283,8.0,14.0,29,0.00,,,0.00,Wunderground v.1.12,2013-05-15 18:31:00,
2013-05-15 14:36:00,82.4,47.8,29.66,NNW,327,10.0,10.0,30,0.00,,,0.00,Wunderground v.1.12,2013-05-15 18:36:00,
2013-05-15 14:41:00,82.6,46.2,29.66,WNW,293,6.0,15.0,28,0.00,,,0.00,Wunderground v.1.12,2013-05-15 18:41:00,
2013-05-15 14:46:00,82.4,46.0,29.66,WNW,301,9.0,11.0,28,0.00,,,0.00,Wunderground v.1.12,2013-05-15 18:46:00,
2013-05-15 14:52:00,82.6,48.0,29.66,WSW,254,7.0,16.0,30,0.00,,,0.00,Wunderground v.1.12,2013-05-15 18:52:00,
2013-05-15 14:57:00,82.8,46.4,29.66,NW,321,11.0,11.0,28,0.00,,,0.00,Wunderground v.1.12,2013-05-15 18:57:00,
2013-05-15 15:02:00,83.0,46.5,29.66,West,271,9.0,11.0,28,0.00,,,0.00,Wunderground v.1.12,2013-05-15 19:02:00,
2013-05-15 15:07:00,83.2,45.7,29.66,NW,325,2.0,16.0,27,0.00,,,0.00,Wunderground v.1.12,2013-05-15 19:07:00,
2013-05-15 15:12:00,83.2,46.7,29.66,NNW,327,7.0,10.0,28,0.00,,,0.00,Wunderground v.1.12,2013-05-15 19:12:00,
2013-05-15 15:17:00,83.2,46.7,29.66,SW,220,5.0,13.0,28,0.00,,,0.00,Wunderground v.1.12,2013-05-15 19:17:00,
2013-05-15 15:24:00,82.8,46.4,29.66,WSW,247,11.0,11.0,28,0.00,,,0.00,Wunderground v.1.12,2013-05-15 19:24:00,
2013-05-15 15:30:00,82.8,46.4,29.66,WNW,302,5.0,9.0,28,0.00,,,0.00,Wunderground v.1.12,2013-05-15 19:30:00,
2013-05-15 15:35:00,82.6,46.2,29.66,NW,307,14.0,17.0,28,0.00,,,0.00,Wunderground v.1.12,2013-05-15 19:35:00,
2013-05-15 15:40:00,82.8,46.4,29.66,WNW,299,5.0,11.0,28,0.00,,,0.00,Wunderground v.1.12,2013-05-15 19:40:00,
2013-05-15 15:45:00,83.2,45.7,29.66,West,275,9.0,11.0,27,0.00,,,0.00,Wunderground v.1.12,2013-05-15 19:45:00,
2013-05-15 15:50:00,83.4,45.9,29.66,WNW,285,13.0,13.0,27,0.00,,,0.00,Wunderground v.1.12,2013-05-15 19:50:00,
2013-05-15 15:55:00,83.4,46.9,29.66,NW,304,17.0,17.0,28,0.00,,,0.00,Wunderground v.1.12,2013-05-15 19:55:00,
2013-05-15 16:00:00,83.4,44.9,29.66,NNW,329,7.0,9.0,26,0.00,,,0.00,Wunderground v.1.12,2013-05-15 20:00:00,
2013-05-15 16:05:00,83.2,46.7,29.66,WNW,294,5.0,9.0,28,0.00,,,0.00,Wunderground v.1.12,2013-05-15 20:05:00,
2013-05-15 16:11:00,83.2,45.7,29.66,WNW,293,2.0,9.0,27,0.00,,,0.00,Wunderground v.1.12,2013-05-15 20:11:00,
2013-05-15 16:16:00,83.4,45.9,29.66,NW,317,7.0,12.0,27,0.00,,,0.00,Wunderground v.1.12,2013-05-15 20:16:00,
2013-05-15 16:21:00,83.6,47.0,29.66,NW,321,10.0,11.0,28,0.00,,,0.00,Wunderground v.1.12,2013-05-15 20:21:00,
2013-05-15 16:26:00,83.4,45.9,29.66,NW,320,5.0,15.0,27,0.00,,,0.00,Wunderground v.1.12,2013-05-15 20:26:00,
2013-05-15 16:31:00,83.2,46.7,29.66,NNW,340,16.0,16.0,28,0.00,,,0.00,Wunderground v.1.12,2013-05-15 20:31:00,
2013-05-15 16:36:00,83.2,46.7,29.66,West,264,9.0,10.0,28,0.00,,,0.00,Wunderground v.1.12,2013-05-15 20:36:00,
2013-05-15 16:42:00,83.2,46.7,29.66,WSW,251,10.0,13.0,28,0.00,,,0.00,Wunderground v.1.12,2013-05-15 20:42:00,
2013-05-15 16:47:00,83.6,47.0,29.66,NW,311,7.0,12.0,28,0.00,,,0.00,Wunderground v.1.12,2013-05-15 20:47:00,
2013-05-15 16:52:00,83.4,44.9,29.66,WNW,294,12.0,15.0,26,0.00,,,0.00,Wunderground v.1.12,2013-05-15 20:52:00,
2013-05-15 16:57:00,83.0,44.6,29.66,NW,304,6.0,12.0,26,0.00,,,0.00,Wunderground v.1.12,2013-05-15 20:57:00,
2013-05-15 17:03:00,83.0,45.6,29.66,WNW,292,3.0,14.0,27,0.00,,,0.00,Wunderground v.1.12,2013-05-15 21:03:00,
2013-05-15 17:10:00,83.0,45.6,29.66,NW,317,5.0,7.0,27,0.00,,,0.00,Wunderground v.1.12,2013-05-15 21:10:00,
2013-05-15 17:15:00,83.2,46.7,29.67,NW,306,3.0,6.0,28,0.00,,,0.00,Wunderground v.1.12,2013-05-15 21:15:00,
2013-05-15 17:20:00,83.4,46.9,29.67,West,262,6.0,6.0,28,0.00,,,0.00,Wunderground v.1.12,2013-05-15 21:20:00,
2013-05-15 17:25:00,83.4,45.9,29.67,West,266,4.0,9.0,27,0.00,,,0.00,Wunderground v.1.12,2013-05-15 21:25:00,
2013-05-15 17:30:00,83.2,45.7,29.67,West,268,7.0,7.0,27,0.00,,,0.00,Wunderground v.1.12,2013-05-15 21:30:00,
2013-05-15 17:35:00,83.0,44.6,29.67,WNW,283,10.0,14.0,26,0.00,,,0.00,Wunderground v.1.12,2013-05-15 21:35:00,
2013-05-15 17:40:00,82.8,46.4,29.67,West,271,13.0,13.0,28,0.00,,,0.00,Wunderground v.1.12,2013-05-15 21:40:00,
2013-05-15 17:46:00,82.8,46.4,29.66,WNW,285,4.0,8.0,28,0.00,,,0.00,Wunderground v.1.12,2013-05-15 21:46:00,
2013-05-15 17:51:00,83.0,46.5,29.66,NW,319,8.0,9.0,28,0.00,,,0.00,Wunderground v.1.12,2013-05-15 21:51:00,
2013-05-15 17:56:00,82.8,46.4,29.66,NNW,329,6.0,11.0,28,0.00,,,0.00,Wunderground v.1.12,2013-05-15 21:56:00,
2013-05-15 18:01:00,82.8,46.4,29.66,NW,310,2.0,14.0,28,0.00,,,0.00,Wunderground v.1.12,2013-05-15 22:01:00,
2013-05-15 18:07:00,82.8,45.4,29.66,WSW,258,1.0,10.0,27,0.00,,,0.00,Wunderground v.1.12,2013-05-15 22:07:00,
2013-05-15 18:14:00,82.6,45.2,29.67,NW,319,11.0,14.0,27,0.00,,,0.00,Wunderground v.1.12,2013-05-15 22:14:00,
2013-05-15 18:19:00,82.0,44.7,29.67,WNW,300,10.0,17.0,27,0.00,,,0.00,Wunderground v.1.12,2013-05-15 22:19:00,
2013-05-15 18:25:00,81.6,45.3,29.67,West,275,4.0,8.0,28,0.00,,,0.00,Wunderground v.1.12,2013-05-15 22:25:00,
2013-05-15 18:30:00,81.6,44.4,29.67,West,273,3.0,6.0,27,0.00,,,0.00,Wunderground v.1.12,2013-05-15 22:30:00,
2013-05-15 18:36:00,81.8,44.5,29.67,West,279,7.0,12.0,27,0.00,,,0.00,Wunderground v.1.12,2013-05-15 22:36:00,
2013-05-15 18:41:00,81.6,44.4,29.67,West,277,4.0,7.0,27,0.00,,,0.00,Wunderground v.1.12,2013-05-15 22:41:00,
2013-05-15 18:46:00,81.4,45.2,29.67,WSW,249,13.0,13.0,28,0.00,,,0.00,Wunderground v.1.12,2013-05-15 22:46:00,
2013-05-15 18:51:00,80.9,43.8,29.67,West,278,6.0,10.0,27,0.00,,,0.00,Wunderground v.1.12,2013-05-15 22:51:00,
2013-05-15 18:56:00,80.5,42.4,29.68,WNW,287,7.0,11.0,26,0.00,,,0.00,Wunderground v.1.12,2013-05-15 22:56:00,
2013-05-15 19:01:00,80.3,43.3,29.68,West,261,7.0,7.0,27,0.00,,,0.00,Wunderground v.1.12,2013-05-15 23:01:00,
2013-05-15 19:06:00,79.9,41.9,29.68,WSW,252,6.0,12.0,26,0.00,,,0.00,Wunderground v.1.12,2013-05-15 23:06:00,
2013-05-15 19:12:00,79.8,41.9,29.68,WNW,290,3.0,10.0,26,0.00,,,0.00,Wunderground v.1.12,2013-05-15 23:12:00,
2013-05-15 19:18:00,79.4,43.4,29.68,WNW,291,5.0,6.0,28,0.00,,,0.00,Wunderground v.1.12,2013-05-15 23:18:00,
2013-05-15 19:23:00,79.2,43.3,29.68,WNW,303,9.0,9.0,28,0.00,,,0.00,Wunderground v.1.12,2013-05-15 23:23:00,
2013-05-15 19:30:00,78.6,42.8,29.68,NW,323,5.0,5.0,28,0.00,,,0.00,Wunderground v.1.12,2013-05-15 23:30:00,
2013-05-15 19:35:00,78.1,42.3,29.68,West,273,3.0,7.0,28,0.00,,,0.00,Wunderground v.1.12,2013-05-15 23:35:00,
2013-05-15 19:41:00,77.7,42.9,29.68,WNW,285,3.0,6.0,29,0.00,,,0.00,Wunderground v.1.12,2013-05-15 23:41:00,
2013-05-15 19:46:00,77.4,43.5,29.68,WNW,287,1.0,5.0,30,0.00,,,0.00,Wunderground v.1.12,2013-05-15 23:46:00,
2013-05-15 19:51:00,77.0,43.2,29.68,WNW,299,5.0,7.0,30,0.00,,,0.00,Wunderground v.1.12,2013-05-15 23:51:00,
2013-05-15 19:56:00,76.7,43.8,29.68,West,281,2.0,6.0,31,0.00,,,0.00,Wunderground v.1.12,2013-05-15 23:56:00,
2013-05-15 20:01:00,76.3,43.4,29.68,West,268,0.0,4.0,31,0.00,,,0.00,Wunderground v.1.12,2013-05-16 00:01:00,
2013-05-15 20:07:00,75.8,41.3,29.68,West,264,6.0,9.0,29,0.00,,,0.00,Wunderground v.1.12,2013-05-16 00:07:00,
2013-05-15 20:12:00,75.4,40.9,29.69,West,279,4.0,6.0,29,0.00,,,0.00,Wunderground v.1.12,2013-05-16 00:12:00,
2013-05-15 20:17:00,75.1,39.8,29.69,WNW,287,3.0,5.0,28,0.00,,,0.00,Wunderground v.1.12,2013-05-16 00:17:00,
2013-05-15 20:23:00,74.7,40.3,29.69,West,270,2.0,6.0,29,0.00,,,0.00,Wunderground v.1.12,2013-05-16 00:23:00,
2013-05-15 20:28:00,74.4,39.2,29.69,West,277,4.0,8.0,28,0.00,,,0.00,Wunderground v.1.12,2013-05-16 00:28:00,
2013-05-15 20:33:00,74.0,37.9,29.69,WNW,291,6.0,8.0,27,0.00,,,0.00,Wunderground v.1.12,2013-05-16 00:33:00,
2013-05-15 20:40:00,74.0,38.8,29.69,NW,313,2.0,4.0,28,0.00,,,0.00,Wunderground v.1.12,2013-05-16 00:40:00,
2013-05-15 20:44:00,74.0,38.8,29.70,NW,304,4.0,8.0,28,0.00,,,0.00,Wunderground v.1.12,2013-05-16 00:44:00,
2013-05-15 20:49:00,73.9,38.7,29.70,WNW,295,2.0,5.0,28,0.00,,,0.00,Wunderground v.1.12,2013-05-16 00:49:00,
2013-05-15 20:55:00,73.7,39.5,29.70,WNW,295,2.0,2.0,29,0.00,,,0.00,Wunderground v.1.12,2013-05-16 00:55:00,
2013-05-15 21:00:00,73.5,39.3,29.69,WNW,295,0.0,1.0,29,0.00,,,0.00,Wunderground v.1.12,2013-05-16 01:00:00,
2013-05-15 21:05:00,73.0,40.6,29.69,WNW,295,1.0,1.0,31,0.00,,,0.00,Wunderground v.1.12,2013-05-16 01:05:00,
2013-05-15 21:11:00,72.7,40.3,29.69,WNW,295,0.0,2.0,31,0.00,,,0.00,Wunderground v.1.12,2013-05-16 01:11:00,
2013-05-15 21:16:00,72.3,40.8,29.70,WNW,295,0.0,2.0,32,0.00,,,0.00,Wunderground v.1.12,2013-05-16 01:16:00,
2013-05-15 21:21:00,72.0,41.3,29.70,WNW,295,0.0,3.0,33,0.00,,,0.00,Wunderground v.1.12,2013-05-16 01:21:00,
2013-05-15 21:27:00,71.6,41.0,29.70,WNW,295,1.0,1.0,33,0.00,,,0.00,Wunderground v.1.12,2013-05-16 01:27:00,
2013-05-15 21:32:00,71.3,41.5,29.70,WNW,295,1.0,1.0,34,0.00,,,0.00,Wunderground v.1.12,2013-05-16 01:32:00,
2013-05-15 21:37:00,71.1,42.0,29.70,WNW,295,0.0,0.0,35,0.00,,,0.00,Wunderground v.1.12,2013-05-16 01:37:00,
2013-05-15 21:42:00,70.8,41.8,29.71,WNW,287,0.0,3.0,35,0.00,,,0.00,Wunderground v.1.12,2013-05-16 01:42:00,
2013-05-15 21:47:00,70.6,42.3,29.71,WNW,287,0.0,0.0,36,0.00,,,0.00,Wunderground v.1.12,2013-05-16 01:47:00,
2013-05-15 21:52:00,70.3,42.1,29.71,WNW,287,1.0,1.0,36,0.00,,,0.00,Wunderground v.1.12,2013-05-16 01:52:00,
2013-05-15 21:58:00,70.3,42.8,29.71,WNW,287,0.0,1.0,37,0.00,,,0.00,Wunderground v.1.12,2013-05-16 01:58:00,
2013-05-15 22:03:00,70.1,42.6,29.71,WNW,287,3.0,3.0,37,0.00,,,0.00,Wunderground v.1.12,2013-05-16 02:03:00,
2013-05-15 22:08:00,69.9,42.4,29.71,WNW,287,2.0,3.0,37,0.00,,,0.00,Wunderground v.1.12,2013-05-16 02:08:00,
2013-05-15 22:13:00,69.8,42.3,29.72,WNW,287,1.0,3.0,37,0.00,,,0.00,Wunderground v.1.12,2013-05-16 02:13:00,
2013-05-15 22:20:00,69.4,42.7,29.72,WNW,287,2.0,2.0,38,0.00,,,0.00,Wunderground v.1.12,2013-05-16 02:20:00,
2013-05-15 22:26:00,69.3,42.6,29.72,WNW,284,0.0,3.0,38,0.00,,,0.00,Wunderground v.1.12,2013-05-16 02:26:00,
2013-05-15 22:30:00,69.1,42.4,29.72,WNW,284,0.0,1.0,38,0.00,,,0.00,Wunderground v.1.12,2013-05-16 02:30:00,
2013-05-15 22:36:00,68.9,42.2,29.72,WNW,284,1.0,1.0,38,0.00,,,0.00,Wunderground v.1.12,2013-05-16 02:36:00,
2013-05-15 22:41:00,68.8,42.8,29.72,WNW,284,3.0,3.0,39,0.00,,,0.00,Wunderground v.1.12,2013-05-16 02:41:00,
2013-05-15 22:46:00,68.6,42.6,29.72,WNW,284,0.0,4.0,39,0.00,,,0.00,Wunderground v.1.12,2013-05-16 02:46:00,
2013-05-15 22:51:00,68.4,43.1,29.72,WNW,284,0.0,2.0,40,0.00,,,0.00,Wunderground v.1.12,2013-05-16 02:51:00,
2013-05-15 22:56:00,68.4,43.8,29.72,WNW,284,0.0,2.0,41,0.00,,,0.00,Wunderground v.1.12,2013-05-16 02:56:00,
2013-05-15 23:01:00,68.4,42.5,29.72,WNW,291,3.0,6.0,39,0.00,,,0.00,Wunderground v.1.12,2013-05-16 03:01:00,
2013-05-15 23:06:00,68.6,42.0,29.72,WNW,297,4.0,6.0,38,0.00,,,0.00,Wunderground v.1.12,2013-05-16 03:06:00,
2013-05-15 23:11:00,68.8,42.1,29.72,NW,312,1.0,5.0,38,0.00,,,0.00,Wunderground v.1.12,2013-05-16 03:11:00,
2013-05-15 23:16:00,68.9,42.2,29.72,NNW,331,1.0,4.0,38,0.00,,,0.00,Wunderground v.1.12,2013-05-16 03:16:00,
2013-05-15 23:21:00,69.1,43.1,29.72,NW,319,3.0,4.0,39,0.00,,,0.00,Wunderground v.1.12,2013-05-16 03:21:00,
2013-05-15 23:28:00,68.9,42.9,29.72,WNW,286,3.0,5.0,39,0.00,,,0.00,Wunderground v.1.12,2013-05-16 03:28:00,
2013-05-15 23:35:00,68.8,43.5,29.72,WNW,297,0.0,2.0,40,0.00,,,0.00,Wunderground v.1.12,2013-05-16 03:35:00,
2013-05-15 23:40:00,68.8,43.5,29.72,WNW,293,4.0,4.0,40,0.00,,,0.00,Wunderground v.1.12,2013-05-16 03:40:00,
2013-05-15 23:45:00,68.6,43.3,29.72,NNW,328,2.0,7.0,40,0.00,,,0.00,Wunderground v.1.12,2013-05-16 03:45:00,
2013-05-15 23:50:00,68.6,43.3,29.72,NW,310,3.0,4.0,40,0.00,,,0.00,Wunderground v.1.12,2013-05-16 03:50:00,
2013-05-15 23:55:00,68.4,43.8,29.72,WNW,287,3.0,4.0,41,0.00,,,0.00,Wunderground v.1.12,2013-05-16 03:55:00,